Regional Weather Roundup
Issued by NWS Charleston, WV

Home | Current Version | Previous Version | Graphics & Text | Print | Product List | Glossary On
Versions: 1 2 3 4 5 6 7 8 9 10 11 12 13 14 15 16 17 18 19 20 21 22 23 24 25 26 27 28 29 30 31 32
000
ASUS41 KRLX 280210
RWRRLX
West Virginia Regional Weather Roundup
National Weather Service Charleston WV
1000 PM EDT MON MAR 27 2017

Note: "fair" indicates few or no clouds below 12,000 feet with no
significant weather and/or obstructions to visibility.

WVZ003-280300-
Northern Panhandle of West Virginia

CITY           SKY/WX    TMP DP  RH WIND       PRES   REMARKS
WHEELING       PTCLDY    63  49  60 CALM      29.90S
$$

WVZ009-280300-
Northwest West Virginia

CITY           SKY/WX    TMP DP  RH WIND       PRES   REMARKS
PARKERSBURG    CLOUDY    62  55  77 CALM      29.92R
$$

WVZ006-280300-
Western West Virginia

CITY           SKY/WX    TMP DP  RH WIND       PRES   REMARKS
HUNTINGTON     TSTM      59  56  89 E6        29.89F
$$

WVZ015-280300-
West Central West Virginia

CITY           SKY/WX    TMP DP  RH WIND       PRES   REMARKS
CHARLESTON     CLOUDY    60  56  86 CALM      29.89F
$$

WVZ022-031-280300-
North Central West Virginia

CITY           SKY/WX    TMP DP  RH WIND       PRES   REMARKS
CLARKSBURG     LGT RAIN  63  54  72 CALM      29.91S
MORGANTOWN     CLOUDY    63  51  65 S3        29.92S
$$

WVZ025-035-042-045-280300-
Southern West Virginia

CITY           SKY/WX    TMP DP  RH WIND       PRES   REMARKS
BECKLEY        PTCLDY    58  51  78 SE7       29.97R
LOGAN          CLOUDY    63  54  72 CALM      29.92S
BLUEFIELD      NOT AVBL
LEWISBURG      CLOUDY    53  52  97 CALM      29.98R
$$

WVZ047-280300-
Northern Mountains of West Virginia

CITY           SKY/WX    TMP DP  RH WIND       PRES   REMARKS
ELKINS         CLOUDY    57  49  74 CALM      29.95F
$$

WVZ052-280300-
Eastern Panhandle of West Virginia

CITY           SKY/WX    TMP DP  RH WIND       PRES   REMARKS
MARTINSBURG    CLOUDY    59  55  87 CALM      29.91R
PETERSBURG     PTCLDY    58  54  86 CALM      29.93S
$$




USA.gov is the U.S. government's official web portal to all federal, state and local government web resources and services.